CW5763 Weather Reports


Display with metric or nautical units.
time (UTC)temp
F
wind
direction
speed
MPH
gust
MPH
rain 1hr
in
rain 24hr
in
rain mn
in
humidity
%
barometer
mb
20260831220005 60 304 3.0 8.0 0.00 0.18 0.12 76 1019.9
20260831215005 60 303 5.0 9.0 0.00 0.18 0.12 75 1019.8
20260831213005 60 309 3.0 7.0 0.00 0.18 0.12 73 1019.7
20260831212004 60 313 3.0 7.0 0.00 0.18 0.12 73 1019.6
20260831211005 61 324 3.0 8.0 0.00 0.18 0.12 72 1019.6
20260831210006 61 308 5.0 8.0 0.00 0.18 0.12 71 1019.5
20260831205004 61 324 5.0 9.0 0.00 0.18 0.12 71 1019.3
20260831203004 62 309 3.0 7.0 0.00 0.18 0.12 72 1019.1
20260831202005 62 307 3.0 7.0 0.00 0.18 0.12 72 1018.9
20260831201005 62 319 3.0 9.0 0.00 0.18 0.12 72 1018.7
20260831200004 63 324 3.0 8.0 0.00 0.18 0.12 73 1018.7
20260831195004 63 351 2.0 6.0 0.00 0.18 0.12 73 1018.6
20260831193005 64 304 2.0 3.0 0.00 0.18 0.12 75 1018.3
20260831192004 64 302 3.0 5.0 0.00 0.18 0.12 74 1018.1
20260831191004 65 312 2.0 7.0 0.00 0.18 0.12 74 1018.0
20260831185005 66 316 2.0 6.0 0.00 0.18 0.12 72 1017.8
20260831184004 66 307 2.0 5.0 0.00 0.18 0.12 71 1017.6
20260831182004 67 304 4.0 9.0 0.00 0.18 0.12 70 1017.5
20260831181004 68 295 5.0 10.0 0.00 0.18 0.12 70 1017.4
20260831180004 68 301 5.0 12.0 0.00 0.18 0.12 69 1017.3
20260831175004 68 294 6.0 10.0 0.00 0.18 0.12 69 1017.2
20260831173004 68 299 6.0 12.0 0.00 0.18 0.12 73 1017.0
20260831172004 68 280 6.0 12.0 0.00 0.18 0.12 72 1017.0
20260831171004 69 305 4.0 12.0 0.00 0.18 0.12 70 1016.8
20260831170004 69 307 4.0 9.0 0.00 0.18 0.12 73 1016.8
20260831165004 69 278 4.0 14.0 0.00 0.18 0.12 71 1016.6
20260831164005 69 286 5.0 10.0 0.00 0.18 0.12 70 1016.5
20260831163004 70 243 5.0 12.0 0.00 0.18 0.12 68 1016.5
20260831162004 70 314 5.0 12.0 0.00 0.18 0.12 72 1016.4
20260831161004 70 339 3.0 12.0 0.00 0.18 0.12 72 1016.4
20260831160004 70 298 5.0 15.0 0.00 0.18 0.12 73 1016.3
20260831154004 70 313 8.0 17.0 0.00 0.18 0.12 72 1016.2
20260831153004 71 303 7.0 17.0 0.00 0.18 0.12 71 1016.1
20260831152004 70 304 6.0 14.0 0.00 0.18 0.12 72 1015.9
20260831151004 69 305 6.0 14.0 0.00 0.18 0.12 73 1015.9
20260831150004 70 293 5.0 12.0 0.00 0.18 0.12 72 1015.8
20260831145004 70 267 3.0 10.0 0.00 0.18 0.12 72 1015.8
20260831143005 70 249 5.0 14.0 0.00 0.18 0.12 71 1015.7
20260831141004 74 298 5.0 12.0 0.00 0.18 0.12 64 1015.3
20260831135006 73 283 6.0 12.0 0.00 0.18 0.12 66 1015.1
20260831134007 72 264 3.0 12.0 0.00 0.18 0.12 71 1015.1
20260831133006 73 296 4.0 12.0 0.00 0.18 0.12 68 1014.9
20260831131006 74 283 6.0 15.0 0.00 0.18 0.12 66 1014.7
20260831130006 74 301 6.0 12.0 0.00 0.18 0.12 63 1014.5
20260831125006 74 294 8.0 14.0 0.00 0.18 0.12 61 1014.5
20260831124006 74 307 5.0 12.0 0.00 0.18 0.12 66 1014.4
20260831123006 74 328 5.0 18.0 0.00 0.18 0.12 61 1014.2
20260831122004 74 299 8.0 18.0 0.00 0.18 0.12 62 1014.0
20260831121006 74 300 8.0 14.0 0.00 0.18 0.12 63 1013.9
20260831114006 72 305 6.0 17.0 0.00 0.18 0.12 63 1013.7
20260831113005 73 285 9.0 15.0 0.00 0.18 0.12 65 1013.5
20260831112006 72 295 9.0 16.0 0.00 0.18 0.12 66 1013.3
20260831111006 71 300 9.0 15.0 0.00 0.18 0.12 68 1013.3
20260831110006 70 293 7.0 14.0 0.00 0.18 0.12 70 1013.1
20260831105006 70 302 6.0 17.0 0.00 0.18 0.12 71 1012.9
20260831104007 69 302 7.0 12.0 0.00 0.18 0.12 74 1012.9
20260831103006 68 306 6.0 12.0 0.00 0.18 0.12 74 1012.8
20260831102006 68 302 9.0 14.0 0.00 0.18 0.12 72 1012.7
20260831101006 68 318 7.0 12.0 0.00 0.18 0.12 75 1012.7
20260831100006 67 305 6.0 14.0 0.00 0.18 0.12 75 1012.5
20260831095006 67 310 7.0 15.0 0.00 0.18 0.12 75 1012.4
20260831094006 67 311 8.0 12.0 0.00 0.18 0.12 76 1012.2
20260831093006 67 302 6.0 17.0 0.00 0.18 0.12 78 1012.3
20260831092007 66 318 5.0 14.0 0.00 0.18 0.12 78 1012.1
20260831091006 65 302 4.0 20.0 0.00 0.18 0.12 79 1011.9
20260831090006 65 293 9.0 20.0 0.00 0.18 0.12 78 1011.7
20260831085006 66 296 8.0 15.0 0.00 0.18 0.12 78 1011.5
20260831084006 65 306 7.0 20.0 0.00 0.18 0.12 80 1011.5
20260831083005 64 303 6.0 18.0 0.00 0.18 0.12 81 1011.3
20260831082006 64 300 6.0 20.0 0.00 0.18 0.12 81 1011.3
20260831081005 64 298 8.0 20.0 0.00 0.18 0.12 82 1011.1
20260831080006 64 299 9.0 15.0 0.00 0.18 0.12 82 1011.0
20260831075005 63 302 7.0 15.0 0.00 0.18 0.12 81 1010.9
20260831074007 63 299 9.0 16.0 0.00 0.18 0.12 81 1010.6
20260831073006 63 310 6.0 15.0 0.00 0.18 0.12 83 1010.5
20260831072006 62 318 6.0 15.0 0.00 0.18 0.12 83 1010.4
20260831065006 61 309 5.0 12.0 0.00 0.18 0.12 83 1009.9
20260831064005 61 312 6.0 12.0 0.00 0.18 0.12 83 1009.8
20260831063006 61 301 6.0 12.0 0.00 0.18 0.12 84 1009.6
20260831062006 61 293 6.0 14.0 0.00 0.18 0.12 85 1009.4
20260831061005 60 300 5.0 14.0 0.00 0.18 0.12 85 1009.4
20260831055005 60 304 6.0 12.0 0.00 0.18 0.12 84 1008.9
20260831054005 60 299 6.0 12.0 0.00 0.18 0.12 84 1008.8
20260831053006 60 307 6.0 12.0 0.00 0.18 0.12 84 1008.6
20260831052005 60 292 6.0 12.0 0.00 0.18 0.12 84 1008.4
20260831051005 60 304 6.0 12.0 0.00 0.18 0.12 83 1008.3
20260831045005 60 312 6.0 12.0 0.00 0.18 0.12 84 1007.9
20260831044005 60 297 7.0 15.0 0.00 0.18 0.12 84 1007.8
20260831043005 60 300 6.0 12.0 0.00 0.18 0.12 85 1007.7
20260831040005 60 302 5.0 12.0 0.00 0.18 0.12 85 1007.6
20260831035005 60 301 8.0 15.0 0.00 0.18 0.12 85 1007.5
20260831034005 60 309 7.0 12.0 0.00 0.18 0.12 85 1007.4
20260831033005 60 299 6.0 12.0 0.00 0.18 0.12 85 1007.4
20260831032006 60 304 6.0 14.0 0.00 0.18 0.12 86 1007.3
20260831024005 60 306 6.0 12.0 0.00 0.18 0.12 86 1006.9
20260831023005 60 308 5.0 12.0 0.00 0.18 0.12 86 1006.9
20260831022005 60 307 7.0 12.0 0.00 0.18 0.12 87 1006.8
20260831020005 60 308 7.0 14.0 0.02 0.18 0.12 88 1006.7
20260831015005 60 309 7.0 15.0 0.02 0.18 0.12 89 1006.7
20260831014005 60 307 6.0 20.0 0.02 0.18 0.12 89 1006.6
20260831013005 60 312 5.0 12.0 0.02 0.18 0.12 89 1006.6
20260831012005 61 260 6.0 14.0 0.02 0.18 0.12 88 1006.6
20260831011007 61 284 6.0 21.0 0.02 0.18 0.12 88 1006.6
20260831010005 62 290 5.0 21.0 0.00 0.16 0.09 88 1006.6
20260831005005 62 330 5.0 15.0 0.00 0.16 0.09 87 1006.4
20260831004005 62 281 5.0 16.0 0.00 0.16 0.09 88 1006.5
20260831003005 62 258 6.0 21.0 0.00 0.16 0.09 88 1006.3
20260831002005 62 244 3.0 15.0 0.00 0.16 0.09 90 1006.3
20260831001005 62 302 5.0 14.0 0.01 0.16 0.09 91 1006.3
20260831000005 62 235 6.0 17.0 0.09 0.16 0.09 91 1006.3
20260830235004 62 194 5.0 16.0 0.03 0.16 0.09 92 1006.3
20260830234005 62 230 6.0 16.0 0.09 0.16 0.09 92 1006.2
20260830232005 62 207 6.0 16.0 0.09 0.16 0.09 92 1006.4
20260830231005 62 214 5.0 17.0 0.09 0.15 0.09 92 1006.5
20260830225005 63 211 6.0 17.0 0.06 0.06 0.06 88 1007.1
20260830224005 64 162 5.0 17.0 0.01 0.01 0.01 83 1007.1
20260830221006 64 171 6.0 15.0 0.00 0.00 0.00 83 1007.5